{"data":{"norad_id":38354,"epoch":"2026-05-25T04:19:49.710144Z","epoch_age_seconds":63459,"freshness":"FRESH","line1":"1 38354U 12029A   26145.18043646 -.00000427  00000+0 -96578-3 0  9999","line2":"2 38354 100.7380 349.5296 0025260 344.9910  15.0451 13.18381382672411","mean_motion":13.18381382,"eccentricity":0.002526,"inclination_deg":100.738,"raan_deg":349.5296,"arg_perigee_deg":344.991,"mean_anomaly_deg":15.0451,"bstar":-0.00096578,"rev_number":67241,"period_min":109.22484340726,"perigee_km":1171.7894009559,"apogee_km":1210.0282203915,"semimajor_km":7569.0458106737,"source":"CELESTRAK","updated_at":"2026-05-25T13:37:55.301511Z"}}